Time,TemperatureF,DewpointF,PressureIn,WindDirection,WindDirectionDegrees,WindSpeedMPH,WindSpeedGustMPH,Humidity,HourlyPrecipIn,Conditions,Clouds,dailyrainin,SoftwareType,DateUTC
2013-07-11 00:02:00,67.1,61.1,29.08,North,0,0.0,0.0,81,0.00,,,0.00,WUHU216HW,2013-07-11 05:02:00,
2013-07-11 00:07:00,66.9,60.9,29.09,North,0,0.0,0.0,81,0.00,,,0.00,WUHU216HW,2013-07-11 05:07:00,
2013-07-11 00:12:00,66.7,61.0,29.08,North,0,0.0,0.0,82,0.00,,,0.00,WUHU216HW,2013-07-11 05:12:00,
2013-07-11 00:17:00,66.7,61.0,29.09,North,0,0.0,0.0,82,0.00,,,0.00,WUHU216HW,2013-07-11 05:17:00,
2013-07-11 00:18:00,66.7,61.0,29.09,North,0,0.0,0.0,82,0.00,,,0.00,WUHU216HW,2013-07-11 05:18:00,
2013-07-11 00:23:00,66.7,61.0,29.09,North,0,0.0,0.0,82,0.00,,,0.00,WUHU216HW,2013-07-11 05:23:00,
2013-07-11 00:28:00,66.7,61.0,29.08,North,0,0.0,0.0,82,0.00,,,0.00,WUHU216HW,2013-07-11 05:28:00,
2013-07-11 00:33:00,66.3,60.4,29.09,North,0,0.0,0.0,81,0.00,,,0.00,WUHU216HW,2013-07-11 05:33:00,
2013-07-11 00:38:00,66.3,60.4,29.09,North,0,0.0,0.0,81,0.00,,,0.00,WUHU216HW,2013-07-11 05:38:00,
2013-07-11 00:43:00,66.3,60.4,29.09,North,0,0.0,0.0,81,0.00,,,0.00,WUHU216HW,2013-07-11 05:43:00,
2013-07-11 00:48:00,66.2,60.2,29.09,North,0,0.0,0.0,81,0.00,,,0.00,WUHU216HW,2013-07-11 05:48:00,
2013-07-11 00:53:00,66.0,60.0,29.09,North,0,0.0,0.0,81,0.00,,,0.00,WUHU216HW,2013-07-11 05:53:00,
2013-07-11 00:58:00,66.0,60.3,29.09,North,0,0.0,0.0,82,0.00,,,0.00,WUHU216HW,2013-07-11 05:58:00,
2013-07-11 01:03:00,66.0,60.3,29.09,North,0,0.0,0.0,82,0.00,,,0.00,WUHU216HW,2013-07-11 06:03:00,
2013-07-11 01:08:00,66.0,60.6,29.09,North,0,0.0,0.0,83,0.00,,,0.00,WUHU216HW,2013-07-11 06:08:00,
2013-07-11 01:13:00,66.0,60.6,29.09,North,0,0.0,0.0,83,0.00,,,0.00,WUHU216HW,2013-07-11 06:13:00,
2013-07-11 01:18:00,66.0,60.6,29.09,North,0,0.0,0.0,83,0.00,,,0.00,WUHU216HW,2013-07-11 06:18:00,
2013-07-11 01:23:00,66.5,61.2,29.09,North,0,0.0,0.0,83,0.00,,,0.00,WUHU216HW,2013-07-11 06:23:00,
2013-07-11 01:28:00,66.7,61.4,29.09,North,0,0.0,0.0,83,0.00,,,0.00,WUHU216HW,2013-07-11 06:28:00,
2013-07-11 01:33:00,66.9,61.2,29.09,North,0,0.0,0.0,82,0.00,,,0.00,WUHU216HW,2013-07-11 06:33:00,
2013-07-11 01:38:00,66.9,61.2,29.09,North,0,0.0,0.0,82,0.00,,,0.00,WUHU216HW,2013-07-11 06:38:00,
2013-07-11 01:43:00,66.9,60.9,29.10,North,0,0.0,0.0,81,0.00,,,0.00,WUHU216HW,2013-07-11 06:43:00,
2013-07-11 01:48:00,67.1,61.1,29.09,North,0,0.0,0.0,81,0.00,,,0.00,WUHU216HW,2013-07-11 06:48:00,
2013-07-11 01:53:00,67.1,61.1,29.10,North,0,0.0,0.0,81,0.00,,,0.00,WUHU216HW,2013-07-11 06:53:00,
2013-07-11 01:58:00,67.1,60.8,29.09,North,0,0.0,0.0,80,0.00,,,0.00,WUHU216HW,2013-07-11 06:58:00,
2013-07-11 02:03:00,66.7,60.4,29.10,North,0,0.0,0.0,80,0.00,,,0.00,WUHU216HW,2013-07-11 07:03:00,
2013-07-11 02:08:00,66.5,60.2,29.10,North,0,0.0,0.0,80,0.00,,,0.00,WUHU216HW,2013-07-11 07:08:00,
2013-07-11 02:13:00,66.3,60.0,29.09,North,0,0.0,0.0,80,0.00,,,0.00,WUHU216HW,2013-07-11 07:13:00,
2013-07-11 02:18:00,66.0,59.7,29.09,North,0,0.0,0.0,80,0.00,,,0.00,WUHU216HW,2013-07-11 07:18:00,
2013-07-11 02:23:00,66.0,60.0,29.10,North,0,0.0,0.0,81,0.00,,,0.00,WUHU216HW,2013-07-11 07:23:00,
2013-07-11 02:28:00,66.0,60.3,29.09,North,0,0.0,0.0,82,0.00,,,0.00,WUHU216HW,2013-07-11 07:28:00,
2013-07-11 02:33:00,66.0,60.3,29.09,North,0,0.0,0.0,82,0.00,,,0.00,WUHU216HW,2013-07-11 07:33:00,
2013-07-11 02:38:00,66.0,60.3,29.09,North,0,0.0,0.0,82,0.00,,,0.00,WUHU216HW,2013-07-11 07:38:00,
2013-07-11 02:43:00,66.0,60.3,29.09,North,0,0.0,0.0,82,0.00,,,0.00,WUHU216HW,2013-07-11 07:43:00,
2013-07-11 02:48:00,66.3,60.4,29.09,North,0,0.0,0.0,81,0.00,,,0.00,WUHU216HW,2013-07-11 07:48:00,
2013-07-11 02:53:00,66.7,60.7,29.10,North,0,0.0,0.0,81,0.00,,,0.00,WUHU216HW,2013-07-11 07:53:00,
2013-07-11 02:58:00,66.7,60.7,29.10,North,0,0.0,0.0,81,0.00,,,0.00,WUHU216HW,2013-07-11 07:58:00,
2013-07-11 03:03:00,66.7,60.4,29.10,North,0,0.0,0.0,80,0.00,,,0.00,WUHU216HW,2013-07-11 08:03:00,
2013-07-11 03:09:00,66.9,60.6,29.10,North,0,0.0,0.0,80,0.00,,,0.00,WUHU216HW,2013-07-11 08:09:00,
2013-07-11 03:14:00,66.7,60.4,29.10,North,0,0.0,0.0,80,0.00,,,0.00,WUHU216HW,2013-07-11 08:14:00,
2013-07-11 03:19:00,66.5,60.2,29.09,North,0,0.0,0.0,80,0.00,,,0.00,WUHU216HW,2013-07-11 08:19:00,
2013-07-11 03:24:00,66.2,59.7,29.10,North,0,0.0,0.0,80,0.00,,,0.00,WUHU216HW,2013-07-11 08:24:00,
2013-07-11 03:29:00,65.6,59.3,29.10,North,0,0.0,0.0,80,0.00,,,0.00,WUHU216HW,2013-07-11 08:29:00,
2013-07-11 03:34:00,65.1,59.1,29.10,North,0,0.0,0.0,81,0.00,,,0.00,WUHU216HW,2013-07-11 08:34:00,
2013-07-11 03:39:00,64.9,59.1,29.10,North,0,0.0,0.0,82,0.00,,,0.00,WUHU216HW,2013-07-11 08:39:00,
2013-07-11 03:44:00,64.5,58.9,29.10,North,0,0.0,0.0,82,0.00,,,0.00,WUHU216HW,2013-07-11 08:44:00,
2013-07-11 03:49:00,64.5,59.2,29.10,North,0,0.0,0.0,83,0.00,,,0.00,WUHU216HW,2013-07-11 08:49:00,
2013-07-11 03:54:00,64.7,59.6,29.09,North,0,0.0,0.0,83,0.00,,,0.00,WUHU216HW,2013-07-11 08:54:00,
2013-07-11 03:59:00,65.1,59.8,29.10,North,0,0.0,0.0,83,0.00,,,0.00,WUHU216HW,2013-07-11 08:59:00,
2013-07-11 04:04:00,65.3,59.9,29.10,North,0,0.0,0.0,83,0.00,,,0.00,WUHU216HW,2013-07-11 09:04:00,
2013-07-11 04:09:00,65.8,60.1,29.10,North,0,0.0,0.0,82,0.00,,,0.00,WUHU216HW,2013-07-11 09:09:00,
2013-07-11 04:14:00,65.8,60.1,29.10,North,0,0.0,0.0,82,0.00,,,0.00,WUHU216HW,2013-07-11 09:14:00,
2013-07-11 04:19:00,66.0,60.3,29.10,North,0,0.0,0.0,82,0.00,,,0.00,WUHU216HW,2013-07-11 09:19:00,
2013-07-11 04:24:00,66.0,60.0,29.10,North,0,0.0,0.0,81,0.00,,,0.00,WUHU216HW,2013-07-11 09:24:00,
2013-07-11 04:29:00,66.3,60.0,29.10,North,0,0.0,0.0,80,0.00,,,0.00,WUHU216HW,2013-07-11 09:29:00,
2013-07-11 04:34:00,66.3,60.0,29.10,North,0,0.0,0.0,80,0.00,,,0.00,WUHU216HW,2013-07-11 09:34:00,
2013-07-11 04:39:00,66.3,60.0,29.10,North,0,0.0,0.0,80,0.00,,,0.00,WUHU216HW,2013-07-11 09:39:00,
2013-07-11 04:44:00,66.2,59.5,29.10,North,0,0.0,0.0,79,0.00,,,0.00,WUHU216HW,2013-07-11 09:44:00,
2013-07-11 04:49:00,66.0,59.7,29.10,North,0,0.0,0.0,80,0.00,,,0.00,WUHU216HW,2013-07-11 09:49:00,
2013-07-11 04:54:00,65.8,59.5,29.10,North,0,0.0,0.0,80,0.00,,,0.00,WUHU216HW,2013-07-11 09:54:00,
2013-07-11 04:59:00,65.6,58.9,29.09,North,0,0.0,0.0,79,0.00,,,0.00,WUHU216HW,2013-07-11 09:59:00,
2013-07-11 05:04:00,65.6,58.9,29.10,North,0,0.0,0.0,79,0.00,,,0.00,WUHU216HW,2013-07-11 10:04:00,
2013-07-11 05:09:00,65.8,59.1,29.10,North,0,0.0,0.0,79,0.00,,,0.00,WUHU216HW,2013-07-11 10:09:00,
2013-07-11 05:14:00,65.8,59.1,29.10,North,0,0.0,0.0,79,0.00,,,0.00,WUHU216HW,2013-07-11 10:14:00,
2013-07-11 05:19:00,65.8,59.1,29.10,North,0,0.0,0.0,79,0.00,,,0.00,WUHU216HW,2013-07-11 10:19:00,
2013-07-11 05:24:00,65.8,59.1,29.10,North,0,0.0,0.0,79,0.00,,,0.00,WUHU216HW,2013-07-11 10:24:00,
2013-07-11 05:29:00,66.0,59.3,29.11,North,0,0.0,0.0,79,0.00,,,0.00,WUHU216HW,2013-07-11 10:29:00,
2013-07-11 05:35:00,65.8,59.1,29.10,North,0,0.0,0.0,79,0.00,,,0.00,WUHU216HW,2013-07-11 10:35:00,
2013-07-11 05:40:00,65.6,58.9,29.11,North,0,0.0,0.0,79,0.00,,,0.00,WUHU216HW,2013-07-11 10:40:00,
2013-07-11 05:45:00,65.4,58.8,29.11,North,0,0.0,0.0,79,0.00,,,0.00,WUHU216HW,2013-07-11 10:45:00,
2013-07-11 05:50:00,65.4,58.8,29.11,North,0,0.0,0.0,79,0.00,,,0.00,WUHU216HW,2013-07-11 10:50:00,
2013-07-11 05:55:00,65.3,58.6,29.11,North,0,0.0,0.0,79,0.00,,,0.00,WUHU216HW,2013-07-11 10:55:00,
2013-07-11 06:00:00,65.3,58.6,29.11,North,0,0.0,0.0,79,0.00,,,0.00,WUHU216HW,2013-07-11 11:00:00,
2013-07-11 06:05:00,65.3,58.6,29.11,North,0,0.0,0.0,79,0.00,,,0.00,WUHU216HW,2013-07-11 11:05:00,
2013-07-11 06:10:00,65.3,58.6,29.12,North,0,0.0,0.0,79,0.00,,,0.00,WUHU216HW,2013-07-11 11:10:00,
2013-07-11 06:15:00,65.3,58.6,29.12,North,0,0.0,0.0,79,0.00,,,0.00,WUHU216HW,2013-07-11 11:15:00,
2013-07-11 06:20:00,65.3,58.6,29.12,North,0,0.0,0.0,79,0.00,,,0.00,WUHU216HW,2013-07-11 11:20:00,
2013-07-11 06:25:00,65.4,58.8,29.12,North,0,0.0,0.0,79,0.00,,,0.00,WUHU216HW,2013-07-11 11:25:00,
2013-07-11 06:30:00,65.4,58.8,29.12,North,0,0.0,0.0,79,0.00,,,0.00,WUHU216HW,2013-07-11 11:30:00,
2013-07-11 06:35:00,65.6,58.9,29.12,North,0,0.0,0.0,79,0.00,,,0.00,WUHU216HW,2013-07-11 11:35:00,
2013-07-11 06:40:00,66.0,58.9,29.12,North,0,0.0,0.0,78,0.00,,,0.00,WUHU216HW,2013-07-11 11:40:00,
2013-07-11 06:45:00,66.5,59.5,29.12,North,0,0.0,0.0,78,0.00,,,0.00,WUHU216HW,2013-07-11 11:45:00,
2013-07-11 06:50:00,66.9,59.4,29.12,North,0,0.0,0.0,77,0.00,,,0.00,WUHU216HW,2013-07-11 11:50:00,
2013-07-11 06:55:00,67.1,59.6,29.12,NE,45,0.0,0.0,77,0.00,,,0.00,WUHU216HW,2013-07-11 11:55:00,
2013-07-11 07:00:00,67.4,59.6,29.12,NE,45,0.0,0.0,76,0.00,,,0.00,WUHU216HW,2013-07-11 12:00:00,
2013-07-11 07:05:00,67.8,60.0,29.12,NE,45,0.0,0.0,76,0.00,,,0.00,WUHU216HW,2013-07-11 12:05:00,
2013-07-11 07:10:00,68.1,60.3,29.12,NE,45,4.4,4.4,76,0.00,,,0.00,WUHU216HW,2013-07-11 12:10:00,
2013-07-11 07:15:00,69.2,60.5,29.12,NE,45,3.8,4.4,74,0.00,,,0.00,WUHU216HW,2013-07-11 12:15:00,
2013-07-11 07:20:00,70.5,61.0,29.12,ENE,68,0.0,3.8,72,0.00,,,0.00,WUHU216HW,2013-07-11 12:20:00,
2013-07-11 07:25:00,71.7,61.8,29.13,ENE,68,0.0,1.1,71,0.00,,,0.00,WUHU216HW,2013-07-11 12:25:00,
2013-07-11 07:30:00,72.3,61.6,29.13,ENE,68,0.0,0.0,69,0.00,,,0.00,WUHU216HW,2013-07-11 12:30:00,